EW6819 Weather Reports


Display with metric or nautical units.
time (UTC)temp
F
wind
direction
speed
MPH
gust
MPH
rain 1hr
in
rain 24hr
in
rain mn
in
humidity
%
barometer
mb
20260503173503 51 268 7.0 23.0 0.00 0.00 0.00 33 1010.7
20260503173214 51 263 8.0 23.0 0.00 0.00 0.00 33 1010.7
20260503172503 52 265 5.0 22.0 0.00 0.00 0.00 30 1010.9
20260503172003 53 300 3.0 14.0 0.00 0.00 0.00 34 1010.8
20260503171713 52 266 3.0 11.0 0.00 0.00 0.00 35 1010.8
20260503171003 52 236 7.0 17.0 0.00 0.00 0.00 34 1010.8
20260503170503 52 240 6.0 17.0 0.00 0.00 0.00 33 1011.0
20260503151003 46 262 4.0 11.0 0.00 0.00 0.00 38 1011.9
20260503150503 46 268 5.0 13.0 0.00 0.00 0.00 40 1012.0
20260503131212 43 252 4.0 12.0 0.00 0.00 0.00 45 1012.7
20260503130714 42 269 4.0 11.0 0.00 0.00 0.00 43 1012.7
20260503120214 38 267 3.0 10.0 0.00 0.00 0.00 47 1012.8
20260503110503 35 247 3.0 7.0 0.00 0.00 0.00 59 1012.4
20260503090503 33 248 1.0 3.0 0.00 0.00 0.00 62 1011.9
20260503081503 34 260 3.0 11.0 0.00 0.00 0.00 62 1012.1
20260503081003 34 253 3.0 9.0 0.00 0.00 0.00 62 1012.2
20260503080714 34 252 3.0 9.0 0.00 0.00 0.00 62 1012.1
20260503072503 36 261 5.0 14.0 0.00 0.00 0.00 61 1012.0
20260503072003 36 259 4.0 11.0 0.00 0.00 0.00 60 1012.0
20260503071503 36 256 3.0 11.0 0.00 0.00 0.00 60 1012.0
20260503071003 36 255 4.0 11.0 0.00 0.00 0.00 60 1012.0
20260503070503 36 255 3.0 13.0 0.00 0.00 0.00 60 1012.0
20260503055003 36 84 0.0 4.0 0.00 0.00 0.00 59 1012.2
20260503054503 36 122 1.0 4.0 0.00 0.00 0.00 59 1012.2
20260503054003 36 135 2.0 5.0 0.00 0.00 0.00 59 1012.2
20260503053713 36 154 2.0 8.0 0.00 0.00 0.00 59 1012.3
20260503053003 36 210 2.0 8.0 0.00 0.00 0.00 58 1012.2
20260503052503 36 229 2.0 7.0 0.00 0.00 0.00 59 1012.3
20260503052003 36 193 2.0 4.0 0.00 0.00 0.00 59 1012.5
20260503051503 36 195 2.0 6.0 0.00 0.00 0.00 59 1012.5
20260503051003 36 198 2.0 6.0 0.00 0.00 0.00 59 1012.6
20260503050503 36 203 2.0 6.0 0.00 0.00 0.00 59 1012.8
20260503050003 36 220 2.0 8.0 0.00 0.00 0.00 59 1012.9
20260503045503 36 229 1.0 8.0 0.00 0.00 0.00 59 1013.0
20260503045003 37 190 0.0 2.0 0.00 0.00 0.00 59 1013.0
20260503044503 36 182 0.0 2.0 0.00 0.00 0.00 59 1013.1
20260503044003 37 181 1.0 5.0 0.00 0.00 0.00 59 1013.1
20260503043503 37 189 1.0 5.0 0.00 0.00 0.00 59 1013.1
20260503043003 37 201 1.0 4.0 0.00 0.00 0.00 58 1013.3
20260503042503 37 198 1.0 4.0 0.00 0.00 0.00 58 1013.2
20260503042003 37 178 1.0 5.0 0.00 0.00 0.00 58 1013.3
20260503041503 37 177 1.0 5.0 0.00 0.00 0.00 58 1013.2
20260503041003 37 185 1.0 3.0 0.00 0.00 0.00 58 1013.1
20260503040503 37 188 1.0 3.0 0.00 0.00 0.00 59 1013.1
20260503040003 37 188 1.0 2.0 0.00 0.00 0.00 59 1013.1
20260503035503 37 188 1.0 2.0 0.00 0.00 0.00 58 1013.0
20260503035003 37 189 1.0 2.0 0.00 0.00 0.00 57 1013.0
20260503034503 37 189 1.0 2.0 0.00 0.00 0.00 57 1013.0
20260503034003 37 189 0.0 2.0 0.00 0.00 0.00 57 1013.1
20260503033503 37 205 1.0 4.0 0.00 0.00 0.00 57 1013.0
20260503033213 37 206 1.0 4.0 0.00 0.00 0.00 57 1013.1
20260503032503 37 230 0.0 2.0 0.00 0.00 0.00 57 1013.2
20260503032003 37 219 0.0 4.0 0.00 0.00 0.00 58 1013.3
20260503031503 37 209 1.0 4.0 0.00 0.00 0.00 57 1013.3
20260503031003 37 204 2.0 5.0 0.00 0.00 0.00 57 1013.4
20260503030503 37 194 2.0 5.0 0.00 0.00 0.00 57 1013.3
20260503030003 37 210 2.0 4.0 0.00 0.00 0.00 57 1013.3
20260503025503 37 207 2.0 6.0 0.00 0.00 0.00 57 1013.3
20260503025003 37 204 3.0 8.0 0.00 0.00 0.00 57 1013.3
20260503024714 37 200 3.0 8.0 0.00 0.00 0.00 57 1013.3
20260503024003 37 198 3.0 6.0 0.00 0.00 0.00 56 1013.4
20260503023503 37 202 2.0 5.0 0.00 0.00 0.00 57 1013.4
20260503023003 37 188 1.0 4.0 0.00 0.00 0.00 57 1013.3
20260503022503 37 168 2.0 4.0 0.00 0.00 0.00 58 1013.2
20260503022003 37 164 2.0 4.0 0.00 0.00 0.00 57 1013.4
20260503021503 37 169 2.0 5.0 0.00 0.00 0.00 58 1013.4
20260503021003 37 185 1.0 5.0 0.00 0.00 0.00 58 1013.4
20260503020503 37 229 2.0 7.0 0.00 0.00 0.00 58 1013.4
20260503020003 37 215 2.0 7.0 0.00 0.00 0.00 58 1013.4
20260503015503 37 197 2.0 4.0 0.00 0.00 0.00 59 1013.4
20260503015003 37 198 2.0 4.0 0.00 0.00 0.00 58 1013.3
20260503014503 37 222 1.0 3.0 0.00 0.00 0.00 59 1013.4
20260503014003 37 261 1.0 3.0 0.00 0.00 0.00 59 1013.5
20260503013713 37 261 1.0 3.0 0.00 0.00 0.00 59 1013.5
20260503013003 37 246 1.0 5.0 0.00 0.00 0.00 59 1013.5
20260503012503 37 202 1.0 5.0 0.00 0.00 0.00 58 1013.4
20260503012214 37 224 1.0 5.0 0.00 0.00 0.00 58 1013.4
20260503011503 37 249 1.0 4.0 0.00 0.00 0.00 58 1013.4
20260503011003 38 262 1.0 3.0 0.00 0.00 0.00 58 1013.4
20260503010503 38 285 2.0 7.0 0.00 0.00 0.00 58 1013.3
20260503010003 38 202 2.0 7.0 0.00 0.00 0.00 58 1013.4
20260503005503 38 213 2.0 6.0 0.00 0.00 0.00 57 1013.3
20260503005003 38 227 2.0 8.0 0.00 0.00 0.00 57 1013.2
20260503004503 38 241 3.0 12.0 0.00 0.01 0.00 56 1013.2
20260503004003 38 255 4.0 12.0 0.00 0.01 0.00 56 1013.3
20260503003503 38 251 5.0 13.0 0.00 0.01 0.00 56 1013.2
20260503003003 38 244 3.0 13.0 0.00 0.01 0.00 55 1013.1
20260503002503 38 251 3.0 11.0 0.00 0.01 0.00 55 1013.1
20260503002003 38 268 3.0 11.0 0.00 0.01 0.00 55 1013.1
20260503001503 38 272 4.0 14.0 0.00 0.01 0.00 55 1013.1
20260503001003 39 269 5.0 14.0 0.00 0.01 0.00 54 1013.0
20260503000503 39 266 4.0 11.0 0.00 0.01 0.00 54 1013.0
20260503000003 39 278 3.0 10.0 0.00 0.01 0.00 54 1013.0
20260502235503 39 274 4.0 12.0 0.00 0.01 0.00 54 1013.0
20260502235003 39 268 6.0 12.0 0.00 0.02 0.00 53 1012.9
20260502234503 39 268 5.0 14.0 0.00 0.02 0.00 54 1012.9
20260502234214 39 267 4.0 14.0 0.00 0.02 0.00 54 1012.8
20260502233503 39 272 3.0 9.0 0.00 0.03 0.00 53 1012.8
20260502233003 39 274 3.0 9.0 0.00 0.03 0.00 53 1012.8
20260502232503 40 268 4.0 9.0 0.00 0.03 0.00 53 1012.8
20260502232003 40 267 4.0 12.0 0.00 0.04 0.00 52 1012.7
20260502231503 40 266 4.0 12.0 0.00 0.04 0.00 52 1012.7
20260502231003 40 269 3.0 9.0 0.00 0.04 0.00 52 1012.7
20260502230503 40 288 4.0 10.0 0.00 0.04 0.00 52 1012.7
20260502230003 40 293 4.0 11.0 0.00 0.04 0.00 51 1012.7
20260502225503 40 303 3.0 11.0 0.00 0.05 0.00 50 1012.7
20260502225003 40 314 2.0 8.0 0.00 0.05 0.00 51 1012.8
20260502224712 40 310 3.0 9.0 0.00 0.05 0.00 51 1012.9
20260502224003 40 306 4.0 11.0 0.00 0.05 0.00 50 1012.8
20260502223503 41 310 4.0 11.0 0.00 0.06 0.00 49 1012.8
20260502223003 41 312 4.0 10.0 0.00 0.06 0.00 49 1012.7
20260502222503 41 313 4.0 10.0 0.00 0.06 0.00 49 1012.7
20260502222003 41 319 4.0 11.0 0.00 0.06 0.00 49 1012.7
20260502221503 41 322 3.0 11.0 0.00 0.07 0.00 49 1012.7
20260502221003 41 325 3.0 11.0 0.00 0.07 0.00 48 1012.7
20260502220503 41 319 4.0 11.0 0.00 0.07 0.00 48 1012.6
20260502220003 41 294 4.0 11.0 0.00 0.07 0.00 49 1012.6
20260502215503 41 284 3.0 11.0 0.00 0.07 0.00 49 1012.6
20260502215003 42 307 1.0 9.0 0.00 0.08 0.00 48 1012.7
20260502214503 41 336 3.0 9.0 0.00 0.08 0.00 50 1012.6
20260502214003 41 335 5.0 14.0 0.00 0.08 0.00 50 1012.5
20260502213503 41 316 5.0 14.0 0.00 0.09 0.00 49 1012.4
20260502213213 41 309 4.0 10.0 0.00 0.09 0.00 48 1012.3
20260502212503 42 315 3.0 9.0 0.00 0.09 0.00 48 1012.3
20260502212003 42 316 3.0 9.0 0.00 0.10 0.00 48 1012.3
20260502211714 42 317 3.0 9.0 0.00 0.10 0.00 49 1012.3
20260502211003 42 313 3.0 13.0 0.00 0.10 0.00 47 1012.3
20260502210503 42 317 4.0 13.0 0.00 0.10 0.00 46 1012.2
20260502210004 42 295 5.0 13.0 0.00 0.11 0.00 44 1012.1
20260502205503 43 270 4.0 13.0 0.00 0.11 0.00 40 1012.1
20260502205003 43 262 4.0 12.0 0.00 0.11 0.00 42 1012.2
20260502204503 43 292 3.0 8.0 0.00 0.11 0.00 41 1012.1
20260502204003 43 311 4.0 12.0 0.00 0.11 0.00 42 1012.1
20260502203503 43 290 5.0 12.0 0.00 0.11 0.00 42 1012.1
20260502203003 44 279 4.0 10.0 0.00 0.11 0.00 40 1012.1
20260502202503 44 290 4.0 10.0 0.00 0.11 0.00 40 1012.1
20260502202003 43 292 4.0 10.0 0.00 0.11 0.00 41 1012.2
20260502201503 43 283 3.0 10.0 0.00 0.12 0.00 41 1012.2
20260502201214 43 283 3.0 10.0 0.00 0.12 0.00 41 1012.2
20260502200503 43 278 5.0 13.0 0.00 0.12 0.00 44 1012.2
20260502200003 43 268 4.0 13.0 0.00 0.12 0.00 39 1012.3
20260502195503 43 256 3.0 13.0 0.00 0.12 0.00 41 1012.3
20260502195003 43 276 3.0 9.0 0.00 0.13 0.00 41 1012.3
20260502194503 43 280 4.0 9.0 0.00 0.13 0.00 42 1012.4
20260502194003 43 285 5.0 14.0 0.00 0.13 0.00 40 1012.4
20260502193503 44 292 3.0 14.0 0.00 0.13 0.00 38 1012.4
20260502193003 44 271 3.0 13.0 0.00 0.14 0.00 42 1012.4
20260502192503 44 272 4.0 13.0 0.00 0.14 0.00 40 1012.5
20260502192003 44 282 4.0 12.0 0.00 0.14 0.00 38 1012.5
20260502191503 44 279 5.0 15.0 0.00 0.14 0.00 40 1012.5
20260502191214 44 277 5.0 15.0 0.00 0.14 0.00 40 1012.6
20260502190503 44 280 4.0 13.0 0.00 0.14 0.00 38 1012.5
20260502190004 44 278 3.0 11.0 0.00 0.14 0.00 38 1012.4
20260502185503 44 282 4.0 11.0 0.00 0.14 0.00 39 1012.4
20260502185214 44 281 4.0 11.0 0.00 0.14 0.00 41 1012.5
20260502184503 44 268 5.0 11.0 0.00 0.14 0.00 39 1012.5
20260502184003 44 276 4.0 11.0 0.00 0.14 0.00 39 1012.4
20260502183503 44 274 5.0 14.0 0.00 0.14 0.00 39 1012.3
20260502182713 45 268 3.0 14.0 0.00 0.14 0.00 39 1012.6
20260502182003 45 249 3.0 10.0 0.00 0.14 0.00 40 1012.6
20260502181503 45 283 3.0 10.0 0.00 0.14 0.00 40 1012.5
20260502181003 45 263 3.0 8.0 0.00 0.14 0.00 39 1012.5
20260502180712 45 251 3.0 12.0 0.00 0.14 0.00 38 1012.5